DECAYED
Showing default

FLOCK 4BE 35, 60558 (Decayed)

Orbit data source: Space-Track

FLOCK 4BE 35, 60558 was a payload satellite owned by Planet (US) in LEO that was launched on Fri, 16 Aug 2024 UTC via an FALCON 9 launch vehicle from the Air Force Western Test Range (AFWTR). Payload-class satellites include a variety of spacecraft equipped with specific instruments for various scientific and technological missions. These include communications satellites like Starlink; space stations such as the ISS; scientific satellites like the Hubble; Earth observation satellites from companies like Planet Labs, Umbra, and HawkEye 360; GPS; miniature CubeSats for education and research; and military/defense satellites.

Not visible in the next 10 days
Identifier
60558, 2024-149CU
Orbit
Decayed
Country
Flag of USUS
Related business
Manufacturer
Planet
Mission
Decayed Commercial Imaging
Bus & Motor
CUBESAT 3U, Unknown motor
Mass
5.7 kg wet, 5.7 kg dry
Launch date (UTC)
2024-08-16 (2 years ago)
Launch vehicle
FALCON 9
Launch site
Air Force Western Test Range (AFWTR)
Object type
Payload
Rocket body
Debris
Shape & HBR
Box + 2 Pan, 1.0 m
Radar Cross Section
0.072 m², Medium (>0.1 m² and < 1m²)

Expand to show TLE details & history
Last TLE update: 2 weeks ago

TLE from 2 weeks ago
0 FLOCK 4BE 35
1 60558U 24149CU  26241.90810534  .16718636  25412-5  31082-3 0  9993
2 60558  97.3391 333.5377 0017227 263.5800  96.3541 16.46074556114123
Epoch: 2026-08-29T21:47Z
TLE epoch observation values (Epoch: 2026-08-29T21:47:40.301Z)
Latitude
-0.00003°
Longitude
28.50848°
Altitude
154.218 km
Speed
7.813 km/s
True Right ascension
22h 14m 09s
True Declination
0° 00' 00"
Sunlit
Object was in full shadow at epoch
Visualization orbit readout
Latitude
Unknown
Longitude
Unknown
Altitude
Unknown
Speed
Unknown
Apparent Right ascension
Unknown
Apparent Declination
Unknown
Sunlit
N/A
Visualization observer readout
Local Sidereal Time
13:57:47
Azimuth
Unknown
Elevation
Unknown
Doppler factor
Unknown
Orbital elements
Apogee altitude
157.73 km
Perigee altitude
135.25 km
Semi-major axis
6,524.627 km
Eccentricity
0.00172
Inclination
97.3391°
RAAN
333.5377°
Arg. of periapsis
263.58°
True anomaly
96.55025°
Mean anomaly
96.3541°
Eccentric anomaly
96.45218°
Mean motion
4.11822 °/min
Orbital period
87.42 mins
BSTAR
0.00031082
Loading maneuver chart data...
Computing Atmospheric mass density...
Loading historical data...
Loading historical data...
Loading historical data...
Loading historical data...
Loading historical data...
Loading historical data...
Loading historical data...

Documentation

Showing up to 5 results
|